Wind_Speed
10 10 16 20 19 19 19 19 18 18 18 18 17 17 15 14 13 14 15 15 13 12 12 13 15 16 16 16 16 16 15 15 16 15 13 13 15 15 13 11 11 13 14 14 14 15 16 17 18 18 18 18 19 20 21 21 22 23 23 23 22 21 21 23 26 29 29 26 24 24 23 22 22 21 20 21 22 24 24 25 26 28 29 29 27
10 12 18 21 19 19 20 19 18 18 18 18 19 19 17 17 17 16 16 16 15 14 14 13 13 15 17 17 17 17 17 17 17 17 17 17 16 16 15 13 11 12 14 15 15 15 15 17 18 17 16 17 18 19 19 19 19 20 20 21 22 21 21 23 25 28 29 27 25 23 23 23 23 23 22 22 23 25 27 27 27 28 28 28 26
12 14 17 20 19 18 20 18 15 15 16 18 21 21 20 21 22 20 19 17 16 15 14 14 14 15 17 18 18 17 18 19 19 19 20 19 18 17 16 16 15 15 15 16 16 16 16 17 18 18 17 18 19 20 20 19 18 18 18 19 20 21 21 22 24 26 28 28 26 23 21 20 21 22 22 21 22 24 26 27 27 27 27 26 27
14 13 14 16 15 14 13 13 13 14 15 18 20 20 20 22 23 23 22 21 19 17 16 17 18 17 17 18 19 19 19 19 20 20 21 21 20 19 18 18 19 19 18 17 16 16 18 18 19 20 20 20 20 21 23 23 23 22 22 21 21 21 21 21 23 25 27 28 28 26 23 21 20 20 21 21 22 23 25 26 26 27 27 27 27
8 8 9 10 10 11 11 11 12 14 16 19 21 22 22 22 24 25 24 23 21 20 20 20 20 20 19 19 19 20 21 21 21 21 22 22 22 22 21 20 21 21 21 20 19 18 19 19 19 20 21 22 22 21 23 24 25 25 25 24 24 24 24 23 24 25 26 28 29 29 28 25 23 22 22 22 22 22 24 25 24 26 28 28 28
4 5 6 8 9 10 11 12 13 14 13 15 18 20 21 21 22 24 24 25 24 24 24 23 22 22 22 21 20 20 21 22 22 23 23 23 23 23 23 23 23 23 23 23 23 22 21 21 21 21 22 23 24 24 24 24 24 25 25 25 25 25 26 27 26 26 27 29 30 31 31 29 28 26 25 24 24 24 25 26 25 25 26 27 28
2 2 3 5 7 8 10 12 13 12 11 10 12 15 16 16 17 17 19 22 24 25 26 25 24 24 24 24 22 21 21 21 21 23 23 23 23 24 24 24 26 26 25 24 24 24 23 22 22 22 23 24 25 26 25 25 24 24 24 24 24 25 26 27 27 27 28 29 30 32 32 31 30 30 28 26 26 26 27 28 29 30 29 28 29
5 4 4 5 6 7 9 10 11 12 12 11 12 14 15 14 14 14 15 17 21 23 24 25 27 27 26 26 23 23 24 23 21 21 21 22 23 24 25 26 27 27 26 26 25 25 25 24 24 24 24 24 25 26 26 26 26 25 24 23 23 24 26 27 27 27 28 29 29 30 31 31 31 31 29 28 27 28 28 29 31 32 31 32 32
6 6 7 7 8 8 9 10 11 11 11 11 11 12 12 12 12 13 14 14 16 18 20 23 27 26 25 26 25 25 28 28 25 22 22 21 22 23 24 26 27 26 25 25 26 26 25 25 25 26 25 25 25 26 27 27 27 28 28 27 27 27 28 28 29 29 29 30 31 32 31 31 31 30 30 29 29 30 30 29 31 32 33 34 35
4 5 5 7 8 8 8 9 10 10 10 9 10 11 12 11 11 12 13 14 13 14 18 21 23 24 24 26 28 27 28 28 27 25 25 23 21 22 24 24 23 24 25 26 27 27 27 27 27 27 27 28 28 28 29 29 30 32 33 33 33 32 31 31 31 31 32 33 35 35 35 34 34 34 34 33 33 33 33 32 32 33 34 35 37
3 3 4 4 5 7 8 7 7 8 8 8 9 11 11 10 10 10 12 14 14 15 18 20 21 23 24 25 27 28 28 28 27 26 27 27 25 25 26 26 24 23 24 26 27 28 28 28 28 28 29 30 30 29 30 31 33 34 36 36 36 35 36 36 36 36 36 37 37 37 38 39 38 37 36 36 36 36 35 34 33 34 35 35 34
4 5 6 6 6 6 6 5 6 7 8 7 7 9 10 10 10 10 11 13 14 15 17 19 20 21 22 22 23 24 26 28 27 27 29 32 31 29 29 29 28 26 25 25 26 27 29 29 27 27 29 30 30 30 30 31 32 33 34 35 35 35 36 37 38 39 40 39 38 38 39 40 41 39 39 38 38 39 37 35 34 34 35 34 32
6 7 9 10 9 7 6 6 7 7 7 6 7 8 10 9 10 12 12 14 16 17 17 19 20 19 19 19 19 20 22 24 25 27 30 33 34 33 31 31 31 30 29 29 30 30 32 32 30 29 28 27 28 29 30 31 33 34 34 34 35 35 35 36 37 39 40 41 41 41 41 41 41 41 41 40 38 38 38 36 34 33 35 35 35
10 9 10 10 9 8 8 8 8 7 7 6 6 7 9 9 10 12 13 14 16 16 15 16 16 15 15 17 17 16 17 19 21 24 28 32 34 35 34 33 33 33 33 33 34 34 35 36 35 33 32 30 29 29 30 31 32 33 34 34 36 36 36 38 39 39 39 40 42 44 44 43 42 42 41 38 34 32 33 34 34 34 35 36 35
14 13 13 12 11 9 8 9 9 9 8 7 6 7 9 10 10 11 12 13 13 12 11 11 11 12 12 13 13 13 13 14 16 18 22 28 32 35 36 35 36 36 36 37 37 37 38 38 38 38 36 36 36 35 34 34 34 34 34 34 35 36 37 39 40 40 41 41 43 44 44 43 43 41 40 40 39 39 42 42 40 38 38 36 34
15 15 15 14 12 10 9 9 9 9 9 8 8 8 9 10 11 11 12 12 10 9 8 8 9 10 10 10 11 11 12 14 15 16 18 21 25 30 32 33 35 37 39 39 39 39 39 39 39 40 39 39 40 39 38 37 37 37 36 34 35 36 36 37 37 37 39 41 41 41 40 39 39 36 36 38 39 42 46 47 44 42 38 34 31
16 15 15 15 14 12 11 10 10 10 9 9 9 9 9 9 10 10 10 9 8 7 7 8 9 9 9 9 9 10 11 13 15 17 18 18 20 23 25 27 29 33 35 36 35 34 33 32 33 34 35 37 38 38 38 38 38 39 38 36 37 38 38 39 39 36 36 37 38 40 40 39 37 34 33 33 35 37 39 39 39 36 31 28 27
16 16 16 16 15 14 14 13 13 13 12 11 11 10 9 9 9 9 8 8 7 7 8 9 10 10 9 9 9 9 10 11 13 15 17 18 19 20 22 24 25 28 30 32 32 30 29 29 29 29 28 30 31 32 33 34 35 37 37 36 37 38 37 37 37 36 34 33 32 34 37 38 35 31 30 30 32 34 33 31 31 29 28 28 29
15 16 16 15 14 14 15 16 15 15 15 15 15 13 11 11 10 9 9 8 8 8 7 7 7 7 8 8 8 8 8 8 9 10 10 11 12 13 14 16 19 21 23 23 22 21 21 24 27 28 28 29 29 30 30 31 32 33 33 32 33 33 32 31 31 30 29 27 26 26 27 28 28 26 24 25 27 28 27 27 27 26 26 26 25
14 14 15 15 14 13 13 14 14 14 14 15 16 16 15 13 12 12 13 13 12 12 12 11 11 12 12 12 12 12 12 11 11 11 11 10 10 10 10 10 10 13 15 15 14 14 16 19 22 25 27 28 29 30 30 31 32 32 32 31 31 30 29 28 28 27 26 26 25 24 22 21 21 19 17 17 18 19 19 18 18 18 17 15 12
13 13 14 15 15 14 14 14 13 12 12 13 13 14 13 12 12 14 16 15 14 14 14 13 13 13 12 11 12 13 14 13 12 12 12 11 11 11 11 11 10 9 7 7 7 8 9 10 11 13 14 15 16 18 18 20 22 22 22 21 21 20 20 20 19 19 19 18 17 16 15 14 12 11 10 9 9 8 7 6 6 5 4 2 3
12 12 13 14 15 15 14 15 15 14 12 13 13 12 11 10 11 13 14 13 13 13 14 14 14 14 14 14 14 14 15 15 16 17 16 15 14 13 13 13 13 12 12 12 11 11 12 12 12 12 12 12 13 13 13 12 11 11 11 10 10 10 10 9 10 10 10 9 8 6 6 6 7 7 6 5 5 5 5 4 4 4 3 3 3
12 12 13 13 14 14 14 14 14 15 13 10 11 11 11 10 10 10 10 10 9 10 12 13 12 11 12 13 14 14 13 15 18 21 20 20 19 18 16 14 13 13 14 15 15 15 15 15 16 16 16 16 17 17 17 17 17 17 16 15 13 12 11 10 9 8 8 7 7 7 7 7 7 7 5 5 6 5 5 5 6 6 6 5 5
11 11 12 12 12 13 13 13 12 13 13 11 8 9 9 9 9 9 8 8 8 7 9 11 10 9 9 9 11 12 11 11 14 16 18 19 20 21 20 18 15 14 15 16 17 17 17 17 17 17 17 17 18 17 17 18 19 19 19 18 16 14 14 13 12 11 10 10 10 10 10 9 8 7 6 6 6 6 7 7 8 8 7 6 4
10 10 10 11 11 11 11 12 12 12 12 12 11 9 6 6 6 6 7 8 7 6 7 8 8 7 7 7 8 9 10 10 10 11 12 14 17 18 18 18 18 17 18 19 20 21 21 20 19 19 19 19 19 19 19 20 20 20 20 19 18 17 17 16 14 13 13 12 12 11 11 10 9 9 9 9 8 8 8 7 6 5 4 3 3
9 9 9 9 10 10 9 9 11 11 11 11 12 12 11 8 5 3 3 5 5 4 6 7 6 6 6 6 6 8 10 11 10 8 7 9 12 14 15 15 14 15 17 18 19 20 21 20 18 18 19 19 19 20 20 20 20 20 20 19 19 19 18 17 16 15 14 13 13 12 11 10 9 8 8 8 7 6 6 5 5 5 4 4 4
9 9 8 8 8 9 9 8 8 11 11 10 10 11 12 14 14 10 5 2 1 2 2 3 3 4 5 5 6 8 9 11 10 7 5 5 6 7 9 10 10 10 11 11 12 14 14 16 16 16 16 18 18 17 17 16 16 16 16 15 15 15 14 14 13 13 12 11 10 10 9 8 7 7 7 7 7 8 7 7 7 6 5 5 4
8 8 8 7 6 6 8 8 7 8 10 9 8 10 11 12 15 16 13 10 5 3 3 3 1 3 4 3 2 5 6 8 9 8 6 4 5 5 5 5 6 6 7 6 7 8 7 10 14 16 15 16 16 15 14 14 13 13 13 13 12 11 11 10 10 10 9 9 7 7 7 6 6 7 8 7 9 10 9 10 9 6 4 5 3
7 7 8 8 6 5 6 8 7 8 8 9 10 11 10 10 12 14 15 14 11 8 6 3 1 2 4 3 2 3 5 6 7 7 6 5 5 4 4 4 4 4 4 4 6 7 5 5 8 11 10 9 10 11 11 12 13 13 13 13 12 12 11 10 10 9 9 8 7 7 7 7 7 9 10 10 11 11 11 13 10 4 2 4 6
5 6 7 7 7 7 7 8 8 8 8 9 11 12 11 10 10 10 12 14 14 12 10 7 3 4 5 4 3 3 4 5 5 5 4 4 5 4 3 3 3 2 2 3 3 5 6 4 4 5 4 4 5 7 8 9 10 11 12 13 13 13 12 10 10 9 8 8 7 7 8 9 9 11 11 10 10 10 10 12 11 7 5 7 8
5 5 6 7 7 7 7 8 8 8 8 8 9 11 10 10 9 8 9 12 12 12 11 10 8 6 5 5 4 4 4 4 4 2 2 3 4 4 4 3 3 2 2 2 2 2 2 1 3 3 3 3 3 5 6 7 7 7 8 9 11 14 14 11 9 8 8 7 8 9 10 10 9 9 9 8 7 6 7 9 9 8 10 9 6
6 6 6 7 8 6 6 8 8 8 8 8 8 9 10 9 9 8 9 12 12 11 11 10 9 8 8 8 8 7 6 6 5 3 3 5 4 4 4 4 5 6 6 4 3 3 3 5 5 5 5 4 3 5 7 7 6 6 6 6 8 11 11 10 9 9 9 8 8 10 10 8 7 7 6 8 10 6 5 8 9 7 10 11 8
7 7 6 9 10 8 6 7 8 8 9 8 8 9 9 9 9 9 10 13 13 11 11 10 8 6 8 10 11 11 9 9 8 7 6 7 7 7 6 7 8 11 11 11 10 8 7 9 9 7 7 7 6 7 8 7 7 8 7 6 8 9 7 7 10 11 11 7 5 7 9 7 5 6 5 5 8 8 5 6 6 5 9 12 11
8 8 8 10 12 10 7 8 9 9 9 10 10 10 10 10 10 11 13 14 14 12 12 12 10 7 7 8 11 12 11 10 9 8 8 8 9 9 9 12 13 12 11 13 15 12 9 9 10 8 8 9 8 8 8 7 7 9 8 7 10 11 7 6 9 10 11 7 2 4 9 6 2 6 7 3 3 7 6 4 2 4 8 11 12
9 9 10 11 11 8 6 8 10 10 11 11 11 12 13 13 12 12 13 13 14 14 15 14 13 10 7 8 9 10 9 7 5 5 7 8 8 8 10 13 15 12 10 12 14 13 11 11 11 9 8 9 9 9 9 9 8 9 8 8 10 11 7 5 5 5 8 9 6 6 9 7 4 5 7 5 5 8 9 5 2 5 8 8 10
10 10 11 11 10 9 9 11 13 13 13 13 14 15 16 16 14 14 14 14 15 16 14 13 13 11 8 8 9 6 5 4 4 5 6 7 6 6 8 12 14 13 12 12 12 10 10 11 11 10 10 11 10 10 11 12 12 12 10 9 10 10 7 6 7 9 12 12 10 9 9 9 6 6 7 8 9 9 9 7 7 8 7 6 8
12 12 12 12 11 12 14 15 16 16 15 16 17 17 18 17 15 15 15 15 14 14 12 11 12 12 11 11 8 3 2 0 3 7 9 8 7 7 8 11 13 13 12 12 12 11 12 12 11 12 12 12 12 12 12 13 13 11 10 9 10 11 12 12 12 12 12 10 8 9 11 11 9 7 7 8 8 7 7 8 9 9 8 8 9
15 16 16 15 14 15 17 17 16 16 17 18 18 18 19 18 17 17 17 16 16 16 16 16 15 15 15 13 9 7 4 6 8 12 13 13 13 12 10 10 12 12 12 12 12 11 12 11 11 12 12 11 12 13 13 13 13 11 10 10 11 11 13 13 11 10 10 11 11 13 14 13 11 11 10 10 9 8 8 9 10 10 10 9 8
18 18 19 19 18 19 19 17 16 17 19 19 18 17 17 17 17 17 18 17 16 17 18 18 17 15 14 12 11 10 13 15 17 21 20 15 13 12 10 9 11 11 11 12 12 11 10 10 11 12 11 10 11 13 13 13 13 12 11 12 13 13 13 13 11 8 9 9 9 12 14 14 13 13 13 11 11 10 9 8 9 11 11 11 11
20 21 21 20 20 20 19 16 15 17 19 18 16 16 16 17 17 17 17 17 18 18 18 17 14 13 14 15 16 17 15 13 17 22 19 13 11 12 11 10 11 11 11 11 10 9 9 10 11 11 10 10 11 12 12 12 12 12 12 12 13 13 14 14 13 11 10 10 8 8 10 12 13 13 12 12 13 13 12 11 11 12 13 14 15
23 23 23 21 21 22 21 19 17 17 17 15 16 17 18 19 18 17 16 16 17 17 16 14 11 11 14 16 15 14 12 14 18 18 13 10 11 11 10 10 10 11 11 10 8 8 9 10 10 10 10 11 11 11 11 11 11 12 12 12 12 13 13 14 14 14 13 13 12 11 11 11 13 14 15 16 16 17 17 16 14 13 14 15 16
25 26 26 25 23 23 22 21 20 20 19 17 18 19 19 17 16 15 16 16 16 15 15 12 11 13 16 16 14 13 15 16 14 9 7 9 10 10 9 10 10 10 10 8 6 8 10 10 9 9 10 11 11 11 11 11 11 11 11 11 12 12 12 12 13 14 14 15 17 17 18 18 18 19 20 20 20 20 20 20 19 18 19 20 21
25 26 26 25 24 23 23 24 25 26 24 22 20 20 18 15 14 15 17 18 17 16 15 14 13 13 14 14 13 14 14 11 7 6 8 10 10 10 10 10 10 11 11 8 6 8 10 10 9 10 10 10 11 11 11 11 11 11 11 11 11 11 10 11 13 15 16 18 18 19 19 18 17 18 18 19 18 18 18 18 18 18 18 19 21
27 27 26 26 26 27 27 28 28 29 27 24 22 22 21 18 17 18 20 19 18 16 14 12 11 10 10 12 13 13 10 7 7 9 10 10 10 10 10 9 10 12 11 8 7 8 10 10 10 11 11 10 10 10 11 11 11 11 11 11 11 11 13 14 14 16 18 19 18 16 15 14 14 15 15 14 15 16 17 17 17 17 17 17 18
28 28 29 30 30 29 28 28 28 29 28 26 25 24 22 19 19 20 19 18 16 14 12 10 10 10 10 11 11 10 9 9 9 9 10 10 10 10 10 10 11 12 11 9 8 10 11 11 11 11 12 12 11 12 12 11 11 11 12 12 13 14 16 16 17 19 20 20 19 17 16 16 17 16 14 14 14 16 17 17 16 16 16 15 15
28 29 30 32 32 31 30 30 29 30 30 29 27 25 22 20 21 21 20 18 15 12 10 9 9 10 10 10 10 10 11 11 10 10 9 9 10 10 10 10 11 12 12 11 11 12 12 11 11 12 13 14 15 16 15 11 9 12 14 14 15 17 19 19 20 21 21 20 19 18 18 19 17 14 13 15 16 15 16 16 15 15 14 15 16
28 28 29 31 32 33 33 32 31 31 32 33 30 26 23 22 21 19 18 16 13 13 13 12 11 11 11 10 10 11 11 11 11 10 10 10 10 10 10 10 10 11 11 12 13 13 12 11 12 14 15 16 17 17 15 11 10 13 16 17 18 20 21 20 21 22 22 20 19 19 19 18 15 12 13 16 17 17 18 19 19 18 17 16 16
29 29 29 31 34 35 35 35 34 33 34 35 34 30 26 24 23 20 16 15 15 15 15 13 13 13 12 11 11 12 12 12 11 11 10 10 10 11 12 13 13 12 12 13 14 14 12 12 14 14 14 15 17 17 15 13 13 15 17 19 21 22 22 22 23 24 24 22 20 19 18 17 14 12 14 16 17 16 15 15 15 16 16 15 15
27 28 29 30 31 32 33 34 33 32 33 34 32 29 27 26 25 22 20 19 18 16 14 11 11 12 12 10 10 10 11 11 11 10 11 11 12 13 14 14 13 13 13 14 14 14 14 16 16 15 14 15 16 17 16 16 16 17 18 20 22 23 23 24 25 25 24 22 21 20 17 14 12 12 13 14 15 15 14 13 13 14 15 14 14
27 27 28 28 28 29 31 31 30 30 33 33 30 28 27 27 25 24 23 21 20 18 17 15 14 13 12 9 8 8 10 11 11 11 12 12 13 14 15 14 13 13 14 14 14 15 16 17 16 14 13 14 16 17 17 18 19 20 20 21 22 24 25 25 26 26 25 24 24 20 14 11 11 12 12 13 15 16 16 16 16 16 15 12 11
30 29 29 29 28 28 30 31 29 30 33 33 30 26 24 24 23 22 21 19 16 15 15 13 10 8 7 6 7 10 12 12 12 12 14 15 15 15 14 14 14 14 14 14 14 15 16 15 14 14 14 16 16 17 19 20 22 23 23 22 22 24 25 25 26 27 27 28 26 19 11 9 12 12 12 14 17 17 16 16 17 17 14 12 10
Wind_Direction
231 236 234 232 230 225 224 228 228 222 219 220 227 230 226 229 234 240 252 255 249 242 237 238 241 242 243 246 249 251 250 252 257 261 260 260 266 275 282 279 266 263 269 272 269 262 258 260 260 261 264 262 261 262 263 263 262 263 265 264 259 254 250 251 254 259 263 265 264 259 254 251 251 254 256 257 257 257 258 261 265 270 276 281 288
224 231 232 229 229 227 225 228 230 228 224 222 227 232 232 235 235 233 242 254 257 251 244 244 245 245 247 248 248 249 251 255 257 256 254 256 260 264 267 271 268 265 268 271 271 266 260 259 260 259 258 260 264 264 263 264 266 269 269 266 264 258 251 250 255 261 267 272 274 270 263 259 259 260 258 255 256 258 259 261 263 267 271 276 283
219 223 228 229 232 232 229 230 232 235 235 232 232 231 229 235 239 235 233 240 247 248 245 246 250 252 252 249 251 253 251 251 254 254 255 259 261 258 258 261 261 261 262 265 268 269 267 266 266 264 259 255 257 260 262 259 255 258 260 262 267 268 261 254 253 258 266 273 276 274 269 265 263 264 262 257 254 256 259 263 267 268 269 271 279
212 217 228 233 240 246 245 242 240 241 242 241 244 246 242 239 241 240 237 236 238 241 242 243 247 254 256 251 252 256 255 252 252 252 254 257 258 257 257 257 259 260 259 259 260 262 264 267 270 272 270 264 258 256 258 259 257 253 250 248 252 259 264 261 257 257 262 268 272 270 267 265 264 265 266 265 260 256 255 259 264 266 266 266 270
215 222 233 239 248 258 262 260 258 259 254 248 251 256 258 255 250 248 246 243 239 238 240 243 244 245 247 246 249 254 255 255 253 252 254 256 257 258 259 259 259 260 259 260 260 258 257 260 263 268 271 271 270 265 260 261 262 260 257 253 249 249 253 256 258 259 258 261 265 268 267 265 261 258 258 260 263 261 259 258 260 262 264 266 267
236 243 244 243 249 263 274 279 281 285 279 265 258 258 259 260 258 256 254 251 247 243 241 241 246 249 246 242 244 250 254 255 255 255 256 258 258 259 259 260 261 260 258 258 259 259 258 258 259 259 260 264 269 272 271 268 264 261 260 259 257 255 253 252 253 257 259 260 260 263 265 266 266 265 260 256 255 257 260 261 259 258 259 262 266
293 280 272 259 261 275 285 288 291 298 300 292 285 283 277 269 266 265 261 255 253 253 250 245 245 250 253 250 248 250 254 255 255 256 257 259 260 261 262 263 264 265 265 262 260 258 258 258 259 260 259 261 264 266 270 272 270 267 263 260 259 259 259 257 254 254 257 260 262 262 262 264 266 268 269 265 257 253 255 256 257 259 261 261 264
358 350 340 326 316 310 306 302 298 298 300 298 295 297 296 290 285 279 270 260 256 259 261 257 251 248 250 254 255 255 257 253 246 245 247 249 253 259 263 264 264 267 270 271 270 266 262 258 257 258 259 261 263 264 265 267 269 269 267 262 259 258 258 258 257 255 255 257 261 263 264 265 266 268 270 268 261 257 257 256 257 262 267 269 271
9 350 335 329 324 316 313 313 309 307 308 305 303 303 302 300 296 291 283 272 265 263 263 265 266 260 252 250 252 255 256 252 249 247 244 244 249 256 262 264 264 263 265 269 271 271 270 266 262 260 261 261 262 264 265 264 264 264 265 265 263 263 261 259 258 256 255 255 258 260 262 262 264 265 265 264 262 263 264 262 260 264 269 271 273
16 1 353 340 332 327 323 319 317 317 316 309 304 303 303 299 293 292 290 284 281 278 272 271 275 273 261 254 254 255 255 255 255 253 247 246 253 256 257 260 263 264 265 267 269 271 272 272 271 270 269 267 266 264 264 264 263 263 265 266 267 266 264 262 260 258 258 259 259 261 262 262 262 262 262 262 263 264 265 265 264 267 271 271 273
12 9 8 350 349 348 341 332 320 309 302 300 300 302 305 305 297 293 292 289 287 283 280 280 281 278 274 271 269 267 264 261 259 254 248 250 255 255 252 254 260 265 268 269 271 272 273 274 277 279 278 276 273 270 268 267 266 266 267 268 269 268 265 263 263 263 263 264 264 263 263 264 267 269 268 269 270 270 268 266 267 270 270 269 271
25 33 25 8 358 341 327 325 318 306 298 295 296 296 295 291 288 288 291 292 290 285 284 284 281 280 283 284 283 280 275 267 262 256 252 252 257 258 255 253 256 259 263 266 268 271 272 273 275 277 279 280 278 276 274 273 273 271 269 270 271 271 269 266 265 265 266 266 265 264 264 267 271 273 273 273 274 274 272 270 270 269 266 265 266
24 37 35 24 10 350 335 332 324 321 318 307 299 297 294 291 293 295 296 294 292 292 290 285 283 288 294 296 295 291 284 277 269 262 256 254 257 258 257 256 256 256 257 260 262 265 267 268 268 269 271 275 277 278 276 275 275 274 272 272 272 272 272 271 269 267 267 266 265 265 266 268 270 272 275 276 273 271 269 268 268 266 265 266 266
25 29 30 26 17 4 357 356 356 358 351 333 322 315 309 311 315 311 306 301 298 297 298 296 298 305 308 304 302 299 292 287 280 271 262 257 256 257 259 259 259 258 258 259 261 262 264 267 269 268 266 267 270 275 277 276 274 274 274 273 271 270 272 273 272 269 268 268 268 268 268 268 269 271 274 275 272 270 270 270 270 270 270 270 270
33 32 29 25 22 16 10 11 17 17 8 355 348 335 325 328 335 333 327 324 319 313 311 310 310 312 310 303 303 304 298 292 286 277 267 261 258 258 261 262 261 262 263 264 264 265 266 267 269 269 268 267 267 269 272 273 272 272 272 271 272 273 275 274 273 272 272 272 271 271 271 272 274 275 276 276 275 272 274 275 274 274 275 275 275
37 35 32 30 28 27 24 19 19 19 13 8 2 353 343 338 340 341 336 332 332 328 320 313 309 310 311 308 304 301 295 291 290 286 278 270 265 263 265 266 266 266 266 267 267 268 268 269 270 271 271 271 270 269 270 271 271 272 271 270 271 273 276 276 274 272 273 273 274 276 276 277 280 280 279 279 274 268 268 271 272 273 275 274 271
40 37 36 34 32 36 37 32 28 25 19 17 14 8 3 354 343 340 336 330 326 325 319 314 311 311 316 319 314 305 300 298 297 294 290 284 278 274 273 272 270 269 269 270 270 270 272 274 275 274 273 272 272 271 271 270 270 271 272 272 272 274 276 279 279 277 276 277 279 280 279 277 278 275 271 270 269 267 268 268 267 268 270 270 268
39 37 38 38 37 38 41 43 43 37 31 31 28 17 11 7 355 344 339 337 333 326 320 317 317 318 326 333 332 327 322 315 309 305 302 299 294 290 286 284 281 279 278 278 278 277 275 274 274 273 273 273 274 273 273 274 273 274 275 276 277 278 279 282 285 286 284 282 282 280 276 275 275 274 271 269 271 271 269 266 264 265 268 272 273
38 37 38 39 40 41 44 48 49 46 43 40 36 33 32 24 8 358 357 2 9 11 7 4 5 13 22 26 26 24 18 9 357 346 338 330 322 314 306 298 292 286 283 285 290 289 278 268 266 268 270 273 275 275 276 278 279 280 282 282 282 284 285 286 289 289 286 284 284 284 282 280 280 283 283 280 277 275 273 271 272 274 276 278 277
38 37 37 35 36 39 44 48 48 50 52 46 36 35 40 35 21 13 15 24 36 42 46 53 59 61 62 62 62 56 45 37 30 20 14 8 1 355 349 338 320 301 288 284 287 288 280 273 273 275 277 279 280 281 281 281 282 284 286 286 285 287 289 289 288 287 284 282 284 288 293 293 291 291 290 285 282 282 281 280 282 283 283 282 277
39 39 37 35 35 37 41 44 43 50 69 69 50 37 37 37 30 23 23 33 41 38 38 44 49 49 46 43 47 46 36 27 21 16 12 9 7 10 15 14 10 1 346 324 309 305 307 308 308 307 306 305 304 303 299 296 294 293 293 293 294 295 295 294 292 291 290 289 291 296 302 304 304 305 304 303 303 302 298 298 302 298 283 250 216
39 41 39 37 36 37 40 40 35 40 70 88 75 53 43 37 32 30 31 34 35 31 29 31 36 35 23 11 9 16 24 31 33 30 27 25 23 24 27 30 34 41 48 51 49 45 40 36 32 27 23 20 15 11 10 7 2 358 354 346 340 339 335 328 323 321 320 323 329 333 337 339 339 339 341 343 351 1 9 21 43 69 89 115 145
35 39 41 39 35 33 37 41 37 33 45 74 85 76 63 45 33 36 39 34 28 28 27 27 32 34 24 13 6 4 16 41 46 39 35 36 39 41 41 40 42 50 56 57 55 51 47 44 42 41 39 36 33 32 32 31 30 30 30 30 29 29 29 27 23 22 23 26 27 28 26 17 5 0 7 10 9 18 36 56 73 81 82 95 110
35 34 35 37 36 31 29 35 43 38 31 36 62 86 86 68 51 45 40 32 28 30 25 22 28 34 31 27 19 6 8 29 36 30 29 32 35 40 46 49 50 54 58 58 55 51 49 47 46 44 42 41 40 38 36 34 34 35 34 35 37 39 41 43 42 41 40 38 34 29 26 25 22 24 29 31 37 54 67 72 77 77 76 81 79
34 32 30 30 32 32 24 21 30 41 39 30 29 42 63 79 84 79 63 49 40 27 17 17 25 33 29 20 17 13 13 15 12 10 19 27 26 27 35 45 54 60 62 63 61 55 51 51 53 53 51 51 51 49 47 47 47 47 46 46 47 49 49 49 49 47 45 44 42 44 49 52 54 57 60 61 64 68 66 63 59 49 31 10 355
30 28 28 21 20 25 24 10 1 8 27 37 31 25 23 26 41 81 99 84 74 50 28 21 22 30 22 1 357 9 13 12 6 356 359 19 27 23 17 23 40 55 61 60 56 48 42 41 45 47 45 45 47 48 48 49 49 49 49 50 50 50 51 52 52 54 57 59 60 62 61 57 55 56 56 52 47 37 27 19 6 357 358 9 24
27 24 25 21 15 14 15 14 355 342 355 21 31 21 13 11 12 12 6 10 89 112 56 21 16 35 26 2 7 20 11 1 6 13 7 5 19 24 13 4 10 28 40 44 44 41 33 24 25 27 23 23 27 31 33 36 38 39 40 43 46 47 46 47 47 47 49 51 54 53 44 34 33 33 30 28 22 11 5 2 359 3 16 20 36
17 14 12 10 15 12 2 5 5 341 332 338 356 2 355 351 360 8 8 359 343 312 303 300 328 31 16 345 12 30 6 348 358 18 32 26 21 30 30 11 4 19 29 27 30 32 12 358 10 17 12 9 11 11 14 20 25 27 28 29 33 37 37 37 37 33 27 23 27 32 26 21 25 22 15 12 11 8 4 356 348 349 8 10 19
5 7 2 354 4 25 6 348 349 350 337 318 320 336 339 333 343 359 6 7 5 357 342 317 256 328 334 314 300 327 332 341 359 15 30 41 39 37 40 36 25 31 42 34 31 33 16 347 356 3 2 2 3 2 7 13 15 19 22 22 23 25 21 21 25 23 14 9 13 20 22 22 23 17 11 8 4 2 6 11 10 14 22 5 4
359 359 355 344 351 14 10 346 336 344 342 323 315 320 325 324 329 343 356 2 5 4 1 355 321 297 312 331 344 337 339 352 4 14 28 32 28 26 37 53 51 46 61 67 57 54 53 32 354 348 348 351 356 2 9 8 4 8 12 17 22 20 11 11 16 10 3 11 23 24 20 21 21 14 7 0 347 336 348 13 29 37 20 4 3
349 346 342 335 338 351 352 341 336 336 333 327 321 318 314 312 314 326 344 351 351 353 356 358 354 340 329 328 327 323 331 343 348 356 354 352 3 10 5 3 5 9 40 67 80 83 78 27 332 337 319 303 341 13 8 355 350 351 353 0 10 11 10 13 15 11 14 29 38 34 26 21 16 9 6 7 355 325 325 348 3 9 4 351 335
325 324 323 321 325 332 330 326 328 327 324 323 322 316 308 300 298 308 328 335 333 333 335 339 346 349 346 343 335 322 313 317 318 308 295 302 314 327 330 329 324 313 306 302 306 316 294 285 305 332 323 310 352 15 354 345 352 356 349 343 346 355 6 20 28 35 42 46 51 46 32 16 359 353 360 16 19 7 337 340 343 345 356 352 330
311 311 307 312 324 332 326 317 318 319 317 316 314 312 309 302 298 301 310 313 314 315 317 317 316 325 339 347 344 331 314 304 303 302 294 291 293 297 309 322 316 304 296 292 294 306 313 305 308 323 329 330 345 351 340 341 355 356 352 345 335 335 352 24 32 33 30 29 53 46 18 357 5 16 1 351 4 5 353 353 350 335 350 2 358
306 306 299 303 317 324 317 312 314 313 311 311 307 301 299 298 297 298 296 294 293 297 304 302 293 291 316 337 342 337 321 302 300 314 320 309 294 285 300 322 323 310 302 300 297 299 312 313 305 306 315 321 327 336 339 343 347 346 344 342 337 330 334 15 29 25 15 10 41 21 355 334 327 21 11 348 360 357 339 336 355 333 342 359 359
304 304 302 305 314 314 300 302 306 302 300 304 301 294 290 287 285 286 286 285 284 285 288 288 280 276 297 321 328 331 324 308 311 346 356 350 329 293 297 327 338 332 325 323 314 306 309 317 318 318 321 319 317 323 329 329 330 336 341 344 344 340 344 12 21 359 346 336 298 306 345 342 284 318 344 344 351 345 327 311 330 336 336 348 352
297 296 297 302 303 290 284 297 307 305 299 294 288 287 290 290 287 283 279 280 283 282 281 283 276 263 271 305 314 315 317 320 331 334 334 345 348 325 318 333 337 331 330 336 335 328 327 334 340 342 338 333 328 327 328 324 317 313 312 316 326 329 329 336 331 318 321 324 307 301 331 346 328 311 315 317 324 329 325 326 338 338 330 328 335
292 289 287 287 282 276 283 299 308 308 303 295 288 285 287 288 287 283 278 277 280 279 279 286 278 262 264 282 286 253 189 208 338 331 320 310 303 304 317 328 325 320 322 328 331 335 337 336 338 338 333 330 331 332 335 337 332 323 317 315 315 315 313 312 314 316 319 323 324 322 326 328 325 320 319 321 320 314 313 321 328 329 327 322 322
289 289 287 284 278 277 283 292 298 302 303 299 292 286 284 281 281 281 281 281 281 279 276 272 263 261 269 266 235 204 226 267 291 308 313 310 302 294 294 310 315 312 316 320 323 328 330 327 328 331 327 323 326 329 331 335 336 334 334 334 333 335 335 327 322 322 319 309 302 306 313 316 317 316 319 323 321 314 309 307 305 310 321 328 328
287 289 289 286 282 279 281 285 292 300 303 300 293 287 284 283 281 280 280 280 278 277 277 272 265 266 271 259 243 264 288 292 297 303 303 304 310 308 302 308 311 307 311 318 315 313 318 322 322 323 322 322 327 329 326 325 327 327 330 333 333 336 340 338 336 341 344 331 307 293 294 300 305 308 309 311 311 310 306 298 293 297 304 307 306
282 284 284 283 281 279 277 277 285 298 302 298 292 289 287 287 285 281 279 278 275 275 280 285 284 282 279 273 276 288 297 302 311 313 305 295 300 307 304 303 307 309 314 316 309 306 317 323 318 318 323 324 323 322 320 321 324 323 322 325 327 327 328 328 327 329 335 336 326 303 291 291 295 299 301 303 303 301 297 292 291 295 299 301 299
278 279 279 279 281 283 279 274 280 291 294 288 284 285 286 285 283 281 281 280 277 275 280 287 290 286 285 285 286 292 302 311 316 316 310 297 298 303 301 301 309 313 309 305 310 323 325 316 311 316 322 319 314 314 317 319 321 320 318 317 318 318 317 317 318 319 317 311 305 302 301 299 298 299 300 300 300 300 298 292 286 286 290 295 296
272 274 274 272 274 278 279 276 278 283 285 283 281 281 282 281 277 274 277 281 279 275 274 275 275 278 282 286 291 302 315 321 320 311 300 294 294 299 304 306 309 307 297 295 318 329 317 306 309 317 316 312 311 313 315 315 316 318 319 317 314 312 310 306 303 301 300 297 294 295 297 299 300 300 301 301 302 302 302 298 294 289 286 286 285
275 277 276 269 266 270 274 274 275 276 277 277 277 275 274 270 267 271 278 279 277 274 271 268 267 271 277 286 299 313 322 325 311 288 289 293 295 300 303 302 301 295 288 289 312 317 305 302 309 310 305 307 313 316 315 314 314 313 315 318 316 308 297 288 285 287 292 297 301 302 303 304 304 302 301 302 302 303 303 302 301 300 297 294 291
279 281 281 278 275 274 272 271 272 273 271 270 271 271 269 264 266 277 280 273 266 265 266 265 267 273 282 292 302 311 315 306 288 287 292 295 298 298 294 293 297 294 286 285 297 301 299 303 306 303 301 303 308 309 307 307 309 312 314 311 302 290 281 280 286 295 302 307 309 309 305 303 301 300 298 297 295 294 292 292 293 295 297 298 297
272 274 276 277 277 275 272 271 272 272 271 269 268 267 263 260 267 276 272 259 256 261 261 260 268 278 283 285 287 291 294 289 286 288 291 292 294 294 289 290 293 290 288 292 294 289 291 301 304 301 300 301 300 300 301 305 311 313 308 296 285 280 281 286 293 301 306 309 310 309 305 303 302 304 306 306 304 300 296 292 290 291 292 291 291
271 272 273 275 275 274 272 272 272 272 273 271 266 260 256 257 265 269 260 250 251 256 253 256 270 277 275 274 275 278 283 285 286 288 289 285 286 290 291 288 285 284 289 294 288 284 290 299 297 294 295 297 298 300 305 313 317 307 296 288 282 281 283 288 294 300 305 307 308 308 309 310 312 317 322 319 312 304 298 294 290 289 291 293 294
279 276 275 276 277 274 271 270 271 271 271 269 266 262 257 256 258 260 256 254 256 255 252 256 264 263 261 265 273 276 279 281 281 284 286 284 283 287 286 281 281 290 296 290 282 286 297 299 292 293 296 297 297 301 307 310 305 294 288 284 280 279 282 288 294 300 306 308 308 310 313 314 316 322 323 316 308 302 301 300 295 290 288 290 293
290 287 283 281 282 279 274 270 270 269 268 268 266 262 256 252 252 255 260 263 265 261 255 253 257 258 259 261 266 271 277 280 280 281 285 287 284 280 278 278 281 288 291 287 286 293 297 290 286 291 296 295 297 300 303 300 294 289 286 284 283 284 288 292 296 302 308 309 308 310 313 317 319 321 320 315 308 303 303 302 295 287 284 287 294
293 292 291 290 289 285 279 273 269 267 267 269 265 258 251 250 253 259 262 260 256 253 248 246 252 259 261 262 266 273 278 280 281 282 284 284 282 281 284 286 285 282 282 287 291 291 287 285 289 294 295 293 294 296 296 293 290 287 285 284 284 287 291 294 298 305 312 314 312 309 310 318 325 321 314 310 305 298 295 294 292 291 293 297 305
294 292 291 290 288 286 283 280 273 268 268 269 267 259 253 251 253 255 253 249 247 249 250 252 255 255 249 248 266 285 288 286 287 287 285 283 284 288 290 290 286 282 284 287 287 284 284 290 298 300 293 289 290 290 290 289 287 285 286 286 286 289 292 295 300 305 311 316 317 314 312 319 322 311 302 304 306 302 300 301 301 299 299 303 313
295 291 289 289 288 285 283 280 275 271 271 270 266 259 254 251 248 242 236 233 233 234 232 229 226 220 216 235 279 295 293 289 288 287 286 286 288 291 290 287 285 288 290 288 285 286 290 295 296 292 286 284 285 286 286 285 285 286 288 288 289 292 294 297 301 304 308 313 318 318 312 312 312 301 291 298 305 307 307 307 305 302 297 294 299
Height
1500 1501 1504 1503 1502 1501 1500 1500 1499 1500 1502 1502 1502 1502 1502 1503 1503 1503 1503 1503 1504 1505 1506 1506 1507 1509 1509 1510 1510 1511 1511 1511 1512 1512 1512 1512 1512 1513 1513 1513 1514 1514 1514 1514 1515 1515 1515 1515 1515 1515 1515 1515 1515 1516 1516 1516 1516 1517 1517 1517 1517 1518 1518 1518 1516 1514 1514 1515 1515 1515 1515 1515 1514 1514 1514 1513 1512 1511 1511 1510 1510 1509 1508 1506 1506
1500 1501 1501 1500 1499 1498 1497 1496 1496 1498 1499 1500 1501 1501 1501 1502 1502 1502 1502 1502 1503 1503 1504 1505 1506 1507 1507 1508 1509 1510 1510 1511 1511 1511 1511 1511 1511 1511 1511 1512 1512 1513 1513 1513 1513 1513 1514 1513 1513 1513 1514 1513 1513 1513 1514 1514 1514 1514 1514 1514 1514 1515 1516 1515 1514 1513 1512 1512 1512 1512 1512 1512 1511 1511 1511 1511 1510 1509 1508 1508 1507 1506 1505 1504 1503
1500 1500 1499 1497 1496 1495 1494 1494 1494 1495 1497 1498 1499 1500 1500 1500 1500 1501 1501 1502 1502 1503 1503 1504 1504 1505 1506 1506 1507 1508 1509 1509 1510 1510 1509 1509 1510 1510 1510 1510 1511 1511 1512 1512 1512 1512 1512 1512 1512 1512 1512 1512 1512 1512 1512 1512 1512 1512 1512 1512 1512 1512 1513 1513 1512 1511 1510 1509 1509 1509 1509 1509 1509 1508 1508 1508 1507 1507 1505 1504 1504 1503 1502 1501 1500
1499 1499 1498 1496 1494 1493 1493 1493 1493 1494 1496 1497 1497 1498 1499 1499 1499 1499 1500 1501 1501 1502 1502 1503 1504 1504 1504 1505 1506 1506 1507 1507 1508 1509 1508 1508 1508 1508 1508 1509 1509 1509 1509 1510 1510 1510 1510 1510 1510 1510 1510 1510 1510 1510 1510 1509 1509 1510 1510 1510 1511 1510 1510 1510 1510 1509 1508 1507 1506 1506 1507 1506 1506 1506 1505 1504 1504 1503 1502 1501 1501 1499 1498 1498 1497
1495 1495 1495 1494 1492 1492 1492 1492 1493 1494 1494 1495 1496 1496 1497 1497 1498 1498 1499 1499 1500 1500 1501 1501 1502 1502 1503 1503 1504 1504 1504 1505 1505 1506 1507 1507 1507 1507 1507 1507 1507 1507 1507 1507 1507 1508 1508 1508 1508 1508 1507 1507 1507 1507 1507 1507 1506 1506 1507 1507 1508 1508 1508 1508 1507 1506 1506 1504 1503 1503 1503 1503 1503 1502 1502 1501 1500 1500 1499 1498 1498 1497 1495 1495 1494
1493 1492 1492 1491 1491 1490 1490 1491 1491 1492 1493 1493 1494 1494 1495 1495 1496 1496 1497 1498 1499 1499 1499 1499 1500 1500 1501 1501 1501 1502 1502 1502 1503 1503 1504 1505 1505 1505 1505 1505 1505 1505 1505 1505 1505 1505 1505 1505 1505 1506 1505 1504 1504 1504 1504 1504 1504 1504 1504 1504 1505 1505 1504 1504 1504 1504 1503 1501 1501 1500 1500 1499 1499 1498 1498 1498 1498 1497 1496 1495 1494 1494 1493 1492 1491
1491 1491 1490 1490 1490 1490 1490 1490 1490 1491 1492 1492 1493 1493 1494 1494 1494 1495 1496 1496 1497 1497 1497 1498 1498 1498 1498 1498 1499 1500 1500 1501 1501 1501 1502 1502 1503 1503 1503 1503 1503 1503 1503 1503 1503 1503 1503 1503 1503 1503 1503 1503 1502 1501 1501 1502 1502 1501 1502 1502 1502 1502 1501 1501 1501 1500 1500 1499 1498 1497 1496 1496 1495 1494 1494 1494 1494 1493 1492 1491 1490 1489 1489 1489 1488
1490 1490 1489 1489 1489 1490 1490 1490 1491 1491 1492 1492 1493 1493 1493 1494 1494 1494 1494 1495 1495 1495 1495 1495 1495 1495 1496 1497 1497 1498 1498 1498 1498 1497 1498 1499 1500 1500 1500 1501 1500 1500 1500 1500 1501 1501 1501 1501 1501 1501 1501 1501 1500 1500 1499 1499 1499 1498 1498 1499 1499 1499 1498 1498 1497 1497 1497 1496 1495 1494 1493 1493 1492 1491 1491 1491 1490 1489 1488 1487 1486 1484 1484 1484 1484
1490 1490 1490 1489 1490 1490 1490 1491 1491 1492 1493 1493 1494 1494 1493 1493 1493 1493 1493 1493 1494 1494 1494 1493 1492 1492 1494 1494 1494 1494 1494 1494 1495 1495 1496 1496 1496 1497 1497 1498 1498 1498 1498 1497 1498 1498 1498 1498 1498 1498 1498 1498 1498 1498 1498 1497 1497 1496 1496 1496 1496 1496 1495 1494 1494 1494 1493 1492 1492 1491 1491 1490 1489 1489 1488 1488 1487 1486 1485 1484 1482 1481 1480 1480 1479
1490 1490 1491 1490 1491 1491 1491 1491 1491 1492 1492 1492 1492 1492 1492 1492 1492 1492 1492 1492 1493 1493 1493 1492 1491 1490 1491 1491 1491 1492 1491 1492 1493 1494 1494 1494 1494 1494 1494 1495 1495 1495 1495 1495 1495 1495 1495 1495 1495 1495 1495 1495 1495 1496 1495 1495 1494 1494 1493 1493 1493 1493 1492 1491 1490 1490 1489 1488 1487 1487 1486 1485 1485 1485 1484 1484 1484 1483 1482 1481 1479 1478 1477 1475 1474
1490 1491 1490 1490 1490 1490 1491 1491 1491 1491 1491 1490 1490 1489 1489 1490 1490 1490 1491 1491 1492 1492 1491 1491 1490 1489 1489 1489 1489 1490 1490 1490 1491 1492 1492 1492 1492 1492 1491 1491 1491 1492 1492 1491 1491 1491 1492 1492 1492 1492 1492 1491 1491 1491 1491 1491 1491 1490 1490 1490 1490 1489 1488 1487 1486 1485 1485 1483 1483 1483 1482 1480 1480 1481 1480 1479 1479 1479 1478 1477 1476 1474 1473 1471 1470
1491 1491 1490 1490 1490 1489 1489 1490 1490 1490 1490 1490 1489 1488 1488 1488 1488 1488 1488 1488 1489 1490 1490 1489 1488 1487 1487 1487 1488 1488 1488 1487 1488 1489 1489 1489 1489 1489 1488 1488 1488 1488 1488 1488 1488 1488 1488 1488 1489 1489 1489 1488 1488 1488 1487 1487 1486 1486 1486 1486 1485 1485 1484 1484 1482 1481 1480 1479 1479 1479 1478 1476 1475 1476 1476 1475 1475 1474 1472 1471 1471 1470 1468 1467 1466
1490 1490 1490 1490 1489 1489 1489 1489 1489 1490 1489 1489 1489 1488 1488 1488 1487 1487 1487 1487 1487 1488 1488 1487 1485 1484 1484 1485 1486 1486 1485 1484 1485 1485 1485 1485 1486 1486 1485 1485 1484 1484 1484 1484 1484 1485 1485 1484 1485 1485 1485 1485 1485 1485 1484 1483 1482 1481 1481 1481 1480 1480 1480 1479 1479 1478 1476 1475 1475 1473 1473 1472 1471 1471 1471 1471 1470 1468 1466 1465 1466 1465 1463 1462 1461
1491 1490 1490 1490 1489 1489 1489 1489 1489 1489 1489 1488 1488 1487 1487 1487 1487 1487 1486 1486 1486 1486 1486 1485 1483 1482 1482 1483 1483 1483 1483 1482 1481 1481 1481 1481 1482 1482 1481 1481 1481 1480 1481 1481 1481 1481 1481 1480 1481 1481 1481 1481 1481 1481 1480 1479 1478 1477 1476 1476 1475 1475 1475 1474 1474 1473 1472 1471 1470 1468 1468 1469 1468 1467 1467 1467 1466 1464 1463 1462 1461 1460 1459 1458 1457
1492 1491 1491 1491 1490 1490 1490 1489 1489 1489 1488 1488 1487 1487 1486 1486 1486 1486 1485 1485 1484 1484 1483 1482 1481 1481 1481 1481 1481 1481 1481 1480 1479 1478 1478 1477 1478 1477 1477 1477 1477 1477 1477 1477 1477 1477 1477 1477 1477 1477 1477 1477 1477 1476 1474 1474 1473 1472 1471 1471 1470 1470 1469 1469 1469 1468 1466 1465 1464 1463 1463 1464 1464 1463 1462 1462 1462 1461 1459 1458 1457 1456 1455 1454 1452
1493 1492 1492 1491 1491 1490 1490 1489 1489 1488 1488 1487 1487 1486 1486 1485 1485 1484 1484 1483 1482 1482 1481 1481 1480 1480 1480 1480 1479 1479 1478 1477 1476 1476 1475 1475 1474 1474 1473 1474 1474 1474 1473 1473 1473 1473 1473 1473 1473 1473 1472 1472 1471 1470 1470 1469 1468 1467 1466 1466 1466 1464 1464 1464 1464 1463 1462 1460 1459 1458 1458 1458 1458 1457 1456 1455 1456 1455 1454 1453 1452 1452 1451 1449 1448
1494 1493 1493 1492 1491 1491 1490 1490 1489 1489 1488 1487 1487 1486 1486 1485 1484 1484 1483 1482 1482 1481 1481 1481 1480 1480 1479 1479 1479 1478 1477 1476 1475 1474 1473 1473 1472 1472 1471 1471 1471 1470 1470 1469 1469 1470 1470 1470 1469 1469 1468 1467 1466 1466 1465 1464 1463 1462 1461 1461 1461 1460 1459 1459 1458 1458 1458 1457 1455 1454 1453 1453 1452 1451 1450 1449 1449 1449 1449 1448 1447 1447 1447 1446 1446
1495 1494 1493 1493 1492 1491 1491 1490 1490 1489 1488 1488 1487 1487 1486 1485 1484 1483 1483 1482 1482 1481 1481 1480 1480 1479 1478 1478 1478 1477 1476 1476 1474 1473 1472 1471 1470 1470 1469 1469 1468 1467 1467 1466 1466 1467 1468 1467 1465 1465 1464 1462 1462 1462 1461 1460 1459 1458 1457 1457 1456 1456 1455 1454 1453 1453 1453 1453 1452 1451 1449 1449 1447 1446 1445 1445 1445 1445 1445 1444 1443 1443 1443 1443 1443
1495 1495 1494 1493 1493 1492 1491 1491 1490 1490 1490 1489 1488 1488 1487 1486 1485 1484 1483 1482 1482 1481 1481 1480 1480 1479 1478 1478 1477 1477 1476 1475 1474 1473 1471 1470 1469 1468 1467 1466 1465 1464 1463 1463 1463 1463 1464 1463 1462 1461 1460 1459 1459 1458 1457 1456 1455 1454 1453 1452 1452 1451 1451 1450 1449 1449 1449 1448 1448 1448 1447 1445 1444 1443 1442 1442 1441 1441 1441 1440 1439 1439 1439 1439 1440
1496 1496 1495 1494 1493 1492 1491 1491 1491 1490 1490 1490 1490 1489 1488 1487 1486 1485 1484 1484 1483 1482 1482 1481 1480 1479 1479 1478 1477 1476 1476 1475 1474 1473 1471 1470 1468 1467 1466 1464 1463 1462 1461 1460 1460 1460 1460 1460 1459 1458 1457 1456 1456 1455 1454 1453 1451 1450 1449 1448 1447 1447 1447 1446 1446 1445 1445 1444 1444 1443 1443 1443 1442 1441 1440 1439 1438 1438 1438 1437 1436 1436 1436 1437 1438
1497 1497 1496 1495 1494 1493 1492 1492 1491 1491 1491 1491 1491 1491 1490 1489 1488 1487 1486 1485 1484 1484 1483 1482 1482 1481 1480 1479 1478 1477 1476 1475 1474 1473 1471 1470 1468 1467 1466 1464 1462 1461 1460 1459 1459 1459 1458 1458 1457 1456 1456 1455 1454 1452 1451 1450 1449 1447 1447 1445 1444 1444 1443 1443 1443 1443 1442 1441 1440 1440 1440 1440 1440 1439 1438 1438 1437 1437 1436 1436 1435 1435 1435 1436 1437
1498 1497 1497 1496 1495 1494 1494 1493 1492 1492 1491 1491 1491 1491 1491 1490 1489 1488 1487 1486 1485 1485 1484 1484 1483 1482 1481 1480 1479 1479 1478 1477 1475 1473 1472 1471 1469 1468 1466 1465 1464 1462 1461 1460 1459 1459 1458 1458 1457 1456 1455 1454 1453 1452 1451 1449 1448 1447 1446 1445 1443 1442 1442 1442 1442 1442 1441 1440 1439 1438 1438 1438 1438 1438 1438 1438 1437 1437 1436 1436 1436 1436 1436 1437 1438
1499 1498 1498 1497 1497 1496 1495 1494 1493 1493 1492 1492 1491 1491 1491 1491 1490 1490 1489 1488 1487 1486 1485 1485 1484 1484 1483 1482 1480 1479 1479 1478 1477 1475 1474 1473 1471 1469 1468 1466 1465 1464 1462 1461 1461 1460 1459 1458 1457 1457 1456 1455 1454 1452 1451 1450 1449 1448 1446 1445 1444 1443 1442 1442 1442 1442 1442 1441 1440 1440 1439 1439 1439 1439 1439 1438 1438 1438 1437 1437 1437 1437 1437 1438 1439
1501 1500 1499 1498 1498 1497 1496 1495 1495 1495 1494 1493 1492 1492 1491 1491 1491 1491 1490 1490 1489 1487 1486 1486 1485 1484 1484 1483 1482 1481 1480 1479 1478 1477 1476 1475 1473 1472 1470 1468 1467 1465 1464 1463 1462 1461 1460 1459 1458 1457 1456 1455 1455 1454 1452 1451 1450 1449 1448 1447 1446 1445 1444 1444 1444 1443 1443 1443 1442 1442 1441 1441 1441 1441 1440 1440 1440 1439 1439 1439 1439 1439 1439 1439 1439
1502 1501 1501 1500 1499 1499 1498 1497 1496 1496 1495 1495 1494 1493 1492 1491 1491 1490 1490 1490 1490 1489 1488 1487 1486 1485 1484 1483 1482 1481 1480 1480 1479 1477 1476 1476 1475 1474 1472 1471 1469 1468 1466 1465 1464 1463 1462 1461 1460 1459 1458 1457 1456 1455 1454 1453 1451 1450 1450 1449 1448 1447 1447 1446 1446 1445 1445 1444 1444 1444 1443 1443 1443 1443 1442 1442 1441 1441 1441 1441 1441 1440 1440 1440 1440
1503 1502 1502 1501 1500 1500 1499 1498 1497 1497 1496 1496 1495 1494 1493 1492 1492 1491 1490 1490 1489 1489 1489 1488 1487 1486 1485 1484 1483 1482 1481 1480 1480 1478 1477 1476 1475 1475 1474 1473 1471 1470 1468 1467 1466 1465 1464 1463 1463 1462 1461 1460 1459 1457 1456 1455 1454 1453 1452 1451 1451 1450 1449 1448 1448 1447 1446 1446 1446 1446 1446 1445 1445 1445 1444 1444 1443 1443 1442 1442 1442 1442 1441 1441 1441
1503 1503 1503 1502 1501 1501 1500 1500 1499 1498 1497 1497 1496 1495 1494 1493 1493 1492 1491 1491 1490 1489 1488 1487 1487 1486 1486 1485 1484 1483 1481 1481 1480 1479 1478 1477 1476 1476 1475 1474 1473 1471 1470 1469 1468 1466 1466 1465 1465 1463 1462 1461 1460 1459 1458 1457 1456 1455 1454 1453 1453 1452 1451 1450 1450 1449 1449 1448 1448 1447 1447 1447 1447 1446 1446 1445 1444 1444 1444 1443 1443 1442 1442 1442 1441
1504 1504 1503 1502 1502 1501 1501 1501 1500 1499 1498 1497 1496 1496 1495 1493 1493 1493 1492 1491 1490 1489 1488 1487 1487 1486 1486 1485 1485 1484 1482 1481 1481 1480 1479 1478 1477 1476 1475 1474 1473 1472 1471 1470 1468 1467 1466 1465 1465 1464 1462 1461 1460 1459 1459 1458 1457 1456 1456 1455 1454 1453 1453 1452 1451 1451 1450 1450 1449 1449 1448 1448 1447 1447 1447 1446 1446 1445 1445 1444 1444 1443 1442 1442 1442
1505 1505 1504 1503 1502 1501 1501 1501 1500 1500 1499 1497 1497 1497 1496 1494 1493 1492 1492 1491 1490 1490 1489 1488 1488 1487 1486 1485 1484 1483 1483 1482 1481 1480 1479 1478 1477 1476 1475 1474 1473 1472 1471 1470 1469 1467 1466 1466 1466 1465 1464 1463 1462 1461 1459 1458 1457 1456 1456 1455 1454 1454 1453 1453 1452 1451 1451 1450 1450 1449 1449 1448 1448 1448 1447 1447 1446 1446 1446 1445 1444 1443 1443 1442 1442
1505 1505 1504 1503 1502 1502 1501 1501 1500 1500 1499 1498 1496 1496 1495 1494 1493 1492 1492 1491 1490 1490 1489 1488 1488 1487 1486 1485 1485 1484 1483 1482 1481 1480 1479 1478 1477 1476 1475 1474 1473 1472 1471 1470 1469 1468 1467 1466 1466 1466 1465 1464 1462 1461 1459 1458 1457 1456 1456 1455 1455 1454 1453 1453 1452 1451 1451 1451 1450 1450 1449 1449 1448 1448 1447 1447 1446 1446 1446 1445 1445 1444 1443 1443 1442
1505 1505 1504 1503 1503 1502 1501 1501 1500 1500 1499 1498 1497 1495 1494 1493 1493 1492 1491 1491 1490 1489 1488 1487 1487 1486 1485 1485 1484 1483 1483 1482 1481 1480 1479 1478 1477 1476 1475 1474 1473 1472 1471 1470 1469 1467 1466 1466 1466 1465 1464 1463 1462 1461 1460 1458 1457 1456 1455 1454 1454 1454 1453 1452 1451 1451 1451 1450 1450 1450 1450 1449 1449 1449 1449 1448 1447 1447 1446 1446 1445 1445 1443 1443 1442
1505 1504 1504 1503 1502 1501 1501 1501 1500 1499 1499 1498 1497 1496 1494 1493 1491 1491 1491 1490 1489 1488 1488 1487 1486 1485 1484 1484 1483 1483 1482 1481 1481 1480 1479 1478 1477 1476 1475 1474 1474 1473 1472 1470 1469 1468 1466 1466 1466 1465 1464 1463 1462 1461 1460 1459 1458 1457 1455 1454 1453 1453 1452 1452 1451 1451 1451 1450 1450 1450 1450 1450 1450 1449 1449 1448 1448 1447 1446 1446 1445 1445 1444 1443 1443
1504 1504 1504 1503 1502 1501 1501 1500 1500 1499 1498 1497 1497 1496 1495 1494 1492 1490 1489 1489 1488 1487 1486 1486 1485 1484 1483 1482 1482 1481 1481 1480 1480 1479 1478 1478 1477 1476 1475 1474 1473 1472 1471 1469 1468 1467 1466 1466 1466 1465 1464 1463 1462 1461 1460 1460 1459 1458 1457 1455 1454 1453 1453 1452 1451 1451 1450 1449 1449 1449 1449 1449 1449 1448 1448 1448 1447 1447 1446 1446 1445 1445 1445 1444 1443
1504 1503 1503 1502 1501 1500 1500 1499 1499 1498 1497 1496 1496 1495 1494 1493 1492 1490 1489 1487 1486 1486 1485 1484 1484 1483 1482 1481 1480 1480 1480 1479 1479 1478 1478 1477 1476 1475 1474 1473 1472 1471 1470 1469 1468 1467 1465 1465 1465 1465 1464 1463 1462 1461 1460 1459 1458 1458 1457 1456 1455 1454 1452 1452 1451 1450 1450 1450 1449 1449 1449 1449 1448 1447 1447 1447 1446 1446 1446 1445 1444 1444 1444 1444 1443
1503 1502 1502 1501 1500 1499 1499 1498 1497 1496 1496 1495 1494 1493 1492 1491 1490 1490 1488 1487 1485 1484 1483 1482 1482 1482 1481 1480 1479 1479 1479 1478 1478 1478 1477 1476 1475 1474 1474 1472 1471 1470 1469 1468 1467 1466 1466 1465 1464 1463 1462 1462 1461 1460 1459 1458 1457 1457 1456 1456 1455 1454 1453 1452 1451 1451 1451 1451 1450 1449 1449 1448 1447 1447 1447 1446 1446 1446 1445 1444 1444 1443 1443 1443 1443
1501 1501 1500 1499 1499 1498 1497 1496 1495 1495 1494 1493 1492 1491 1490 1489 1488 1487 1487 1486 1485 1484 1482 1481 1480 1481 1480 1479 1477 1477 1477 1477 1477 1477 1476 1475 1475 1474 1473 1471 1470 1470 1469 1468 1467 1466 1465 1464 1463 1462 1461 1461 1460 1460 1459 1458 1457 1456 1456 1455 1455 1454 1453 1452 1451 1451 1450 1450 1450 1449 1449 1448 1447 1447 1447 1446 1445 1445 1444 1444 1443 1443 1442 1442 1442
1500 1499 1498 1498 1498 1496 1495 1494 1494 1493 1492 1491 1490 1489 1488 1487 1486 1485 1485 1484 1484 1483 1482 1481 1480 1479 1479 1477 1476 1476 1476 1476 1475 1475 1475 1474 1474 1473 1472 1471 1470 1469 1468 1467 1466 1465 1464 1463 1462 1461 1461 1460 1459 1458 1458 1457 1456 1456 1455 1454 1454 1453 1452 1451 1451 1450 1450 1449 1448 1448 1448 1447 1447 1446 1446 1445 1444 1444 1443 1443 1443 1442 1442 1441 1441
1498 1497 1497 1496 1496 1495 1494 1493 1492 1491 1490 1489 1488 1487 1486 1485 1484 1484 1483 1482 1482 1482 1481 1480 1479 1478 1477 1475 1474 1474 1474 1473 1473 1474 1474 1473 1472 1471 1471 1470 1469 1469 1467 1466 1465 1464 1463 1462 1462 1461 1460 1459 1459 1458 1457 1456 1455 1454 1453 1453 1452 1452 1451 1450 1449 1449 1448 1448 1448 1447 1446 1446 1445 1444 1444 1443 1443 1442 1442 1442 1442 1441 1441 1440 1440
1496 1495 1494 1494 1493 1492 1492 1491 1490 1489 1488 1487 1486 1485 1484 1484 1483 1482 1481 1480 1480 1479 1479 1478 1478 1477 1476 1475 1474 1473 1472 1471 1471 1472 1472 1472 1471 1470 1469 1469 1468 1467 1466 1466 1465 1464 1463 1462 1461 1460 1459 1459 1458 1457 1456 1455 1454 1453 1452 1451 1451 1450 1449 1448 1448 1447 1446 1446 1446 1445 1444 1443 1443 1443 1442 1442 1441 1441 1441 1441 1440 1440 1439 1439 1439
1494 1493 1492 1491 1490 1490 1489 1488 1487 1487 1486 1485 1484 1483 1483 1482 1481 1480 1479 1478 1477 1476 1476 1475 1475 1474 1473 1472 1472 1471 1470 1470 1470 1470 1470 1470 1469 1469 1468 1467 1467 1466 1466 1465 1464 1462 1462 1461 1460 1459 1459 1458 1457 1456 1455 1454 1453 1452 1451 1451 1450 1449 1448 1447 1447 1446 1445 1444 1443 1442 1442 1442 1442 1441 1441 1441 1440 1440 1440 1439 1438 1438 1438 1438 1437
1490 1490 1488 1487 1487 1487 1486 1485 1484 1483 1482 1482 1481 1481 1481 1480 1479 1478 1477 1476 1475 1474 1473 1473 1473 1472 1471 1470 1470 1470 1469 1469 1468 1468 1469 1469 1468 1468 1467 1466 1465 1465 1464 1463 1462 1461 1461 1461 1459 1459 1458 1457 1456 1455 1454 1453 1452 1451 1451 1450 1449 1448 1447 1446 1445 1444 1443 1442 1441 1441 1441 1441 1440 1440 1440 1439 1439 1438 1438 1437 1437 1436 1436 1436 1436
1487 1486 1485 1484 1484 1483 1482 1482 1482 1480 1479 1478 1478 1477 1478 1477 1476 1476 1475 1474 1473 1473 1472 1471 1471 1471 1469 1469 1469 1468 1467 1467 1467 1467 1467 1467 1466 1466 1465 1464 1464 1464 1462 1461 1460 1460 1460 1459 1458 1458 1457 1456 1455 1454 1453 1452 1451 1451 1450 1449 1448 1447 1446 1445 1444 1443 1442 1441 1441 1440 1440 1439 1439 1438 1438 1437 1437 1436 1436 1435 1435 1435 1434 1434 1433
1483 1482 1482 1481 1480 1479 1479 1479 1479 1478 1477 1475 1474 1474 1474 1474 1473 1473 1473 1472 1472 1471 1470 1470 1470 1469 1468 1467 1467 1466 1466 1466 1466 1466 1465 1465 1464 1464 1464 1464 1463 1462 1460 1459 1459 1459 1458 1457 1457 1457 1456 1455 1454 1453 1452 1451 1450 1449 1449 1448 1447 1446 1444 1443 1442 1442 1441 1440 1440 1439 1438 1438 1437 1436 1436 1435 1435 1434 1433 1433 1432 1432 1432 1431 1431
1480 1479 1479 1478 1477 1476 1476 1475 1475 1474 1473 1472 1471 1470 1470 1470 1470 1470 1470 1470 1469 1469 1469 1469 1468 1468 1467 1467 1466 1466 1466 1465 1465 1464 1463 1463 1463 1463 1462 1462 1461 1459 1458 1458 1458 1457 1456 1456 1455 1455 1454 1453 1453 1452 1451 1450 1449 1448 1448 1447 1445 1444 1442 1442 1441 1441 1440 1439 1438 1437 1436 1436 1435 1434 1434 1434 1433 1432 1431 1431 1430 1430 1429 1429 1429
1476 1476 1475 1474 1473 1472 1471 1471 1471 1470 1470 1468 1467 1467 1466 1466 1466 1466 1466 1466 1466 1466 1466 1466 1466 1467 1467 1466 1465 1465 1465 1464 1463 1463 1462 1462 1462 1461 1461 1460 1459 1457 1456 1456 1456 1456 1455 1454 1454 1453 1452 1451 1450 1450 1449 1448 1448 1447 1445 1444 1443 1442 1441 1441 1440 1439 1438 1437 1436 1435 1435 1434 1434 1433 1433 1432 1432 1431 1430 1429 1428 1427 1427 1426 1426
1472 1471 1470 1470 1469 1467 1467 1467 1467 1466 1466 1465 1463 1462 1462 1463 1462 1462 1462 1462 1462 1462 1462 1463 1465 1465 1465 1464 1464 1464 1463 1463 1462 1461 1461 1460 1460 1459 1459 1459 1457 1456 1455 1455 1454 1454 1453 1453 1452 1451 1450 1449 1448 1447 1447 1447 1446 1445 1443 1442 1442 1441 1440 1439 1438 1437 1436 1435 1434 1433 1433 1432 1432 1431 1431 1431 1430 1429 1428 1427 1426 1425 1424 1424 1423
1468 1467 1466 1465 1464 1463 1462 1462 1462 1462 1462 1460 1459 1458 1459 1459 1459 1459 1458 1458 1458 1459 1459 1461 1463 1463 1462 1462 1462 1462 1462 1461 1461 1460 1459 1459 1458 1458 1457 1456 1455 1454 1453 1453 1452 1452 1452 1451 1450 1449 1448 1447 1446 1445 1445 1445 1444 1443 1441 1441 1440 1439 1438 1437 1436 1435 1434 1433 1432 1431 1430 1430 1429 1430 1429 1429 1428 1427 1425 1424 1423 1422 1422 1421 1420
1464 1463 1462 1461 1460 1459 1457 1457 1457 1457 1456 1455 1454 1454 1454 1454 1454 1454 1455 1455 1456 1456 1457 1458 1459 1460 1460 1460 1460 1460 1460 1460 1459 1458 1458 1457 1457 1456 1455 1454 1453 1452 1452 1451 1450 1450 1450 1449 1448 1447 1447 1446 1444 1443 1443 1443 1442 1440 1439 1438 1437 1436 1436 1435 1434 1432 1432 1431 1430 1429 1428 1428 1428 1428 1428 1427 1426 1424 1423 1422 1420 1420 1420 1419 1418
1461 1459 1458 1457 1456 1454 1452 1452 1452 1452 1452 1450 1449 1449 1449 1449 1449 1451 1453 1454 1454 1454 1454 1455 1456 1458 1458 1459 1459 1458 1458 1458 1457 1456 1456 1455 1455 1454 1453 1452 1451 1451 1450 1449 1448 1448 1447 1446 1446 1445 1445 1444 1443 1442 1441 1440 1439 1438 1437 1436 1435 1434 1434 1433 1432 1431 1430 1429 1428 1427 1426 1426 1426 1426 1425 1424 1423 1422 1421 1419 1419 1418 1418 1417 1417
1458 1456 1455 1453 1452 1450 1449 1448 1448 1447 1447 1446 1445 1444 1445 1446 1446 1448 1450 1451 1451 1451 1452 1453 1455 1456 1456 1456 1457 1457 1456 1456 1455 1455 1454 1454 1453 1452 1451 1450 1449 1448 1447 1447 1446 1445 1445 1444 1443 1443 1443 1442 1441 1440 1439 1438 1436 1435 1435 1434 1433 1432 1431 1430 1429 1429 1428 1427 1426 1425 1425 1424 1424 1424 1422 1421 1419 1418 1418 1418 1417 1416 1416 1415 1415
1454 1452 1451 1449 1448 1447 1445 1444 1444 1443 1443 1442 1441 1440 1441 1442 1444 1446 1446 1446 1446 1447 1448 1449 1450 1451 1452 1453 1454 1455 1455 1454 1454 1453 1452 1452 1451 1450 1449 1448 1447 1446 1446 1445 1444 1443 1443 1442 1441 1441 1440 1439 1438 1438 1436 1435 1433 1433 1432 1431 1430 1429 1428 1427 1426 1426 1425 1424 1423 1423 1423 1422 1421 1421 1420 1418 1416 1416 1416 1416 1415 1415 1414 1414 1413